Location: *
(41.0833°N, 73.4167°W)
Time: 15:32:11
(UTC+00:00)

Cosmos 2154 Rocket - Pass Details

Date: 22 October 2019
Orbit: 966 x 996 km, 82.9° (Epoch: 12 November)

Event Time Altitude Azimuth Distance (km) Brightness Sun altitude
Rises 09:04:31 0° 182° (S) 3,641 6.9 -24.8°
Reaches altitude 10° 09:07:00 10° 181° (S) 2,697 6.2 -24.3°
Maximum altitude 09:13:10 81° 95° (E) 983 4.0 -23.2°
Drops below altitude 10° 09:19:24 10° 9° (N) 2,720 6.5 -22.0°
Sets 09:21:55 0° 9° (N) 3,674 7.2 -21.5°
